Regional Weather Roundup
Issued by NWS New Orleans/Baton Rouge, LA

Home | Current Version | Previous Version | Text Only | Print | Product List | Glossary Off
Versions: 1 2 3 4 5 6 7 8 9 10 11 12 13 14 15 16 17 18 19 20 21 22 23 24 25 26 27 28 29 30 31 32 33 34 35 36 37 38 39 40 41 42 43 44 45 46 47 48 49 50

779
ASUS44 KLIX 211201
RWRLIX
NEW ORLEANS REGIONAL WEATHER ROUNDUP
NATIONAL WEATHER SERVICE NEW ORLEANS LA
600 AM CST SUN DEC 21 2014

NOTE: "FAIR" INDICATES FEW OR NO CLOUDS BELOW 12,000 FEET WITH NO
      SIGNIFICANT WEATHER AND/OR OBSTRUCTIONS TO VISIBILITY.
      SKY/WX - SKY CONDITION AND SIGNIFICANT WEATHER.
      TMP - AIR TEMPERATURE.     DP    - DEWPOINT TEMPERATURE.
      RH  - RELATIVE HUMIDITY.   PRES  - PRESSURE.
      HI  - HEAT INDEX.          WCI   - WIND CHILL INDEX.

*  THESE STATIONS ARE NOT NWS OR FAA STATIONS AND ARE NOT UNDER
   NWS QUALITY CONTROL.

LAZ038-040-048-061>063-065>067-069-211300-
SOUTHEAST LOUISIANA

CITY           SKY/WX    TMP DP  RH WIND       PRES   REMARKS
N.O. AUDUBON     N/A     53  50  89 MISG        N/A
6HR MIN TEMP:  52; 6HR MAX TEMP:  53;

N.O. INTL ARPT CLOUDY    52  47  83 E8        30.10S
6HR MIN TEMP:  52; 6HR MAX TEMP:  53;

N.O. LAKEFRONT CLOUDY    53  47  79 E12       30.11S
6HR MIN TEMP:  53; 6HR MAX TEMP:  55;

N.O. DOWNTOWN* CLOUDY    52  45  76 NE5       30.10F
6HR MIN TEMP:  52; 6HR MAX TEMP:  54;

SLIDELL        CLOUDY    50  46  86 N3        30.10F
6HR MIN TEMP:  50; 6HR MAX TEMP:  52;

BATON ROUGE    CLOUDY    48  44  86 N3        30.12S
6HR MIN TEMP:  43; 6HR MAX TEMP:  48;

BOOTHVILLE     CLOUDY    55  53  93 NE7       30.09S
6HR MIN TEMP:  54; 6HR MAX TEMP:  55;

BELLE CHASSE   CLOUDY    52  48  86 NE5       30.10F
6HR MIN TEMP:  52; 6HR MAX TEMP:  53;

BOGALUSA*        N/A     46  43  89 N3        30.13S
6HR MIN TEMP:  46; 6HR MAX TEMP:  52;

GALLIANO*      NOT AVBL
NEW ROADS*     NOT AVBL
GONZALES*      NOT AVBL
HAMMOND*       NOT AVBL
HOUMA*         NOT AVBL
PORT FOURCHON* CLOUDY    55  52  88 NE9       30.12S

$$

MSZ070-080>082-211300-
SOUTHERN MISSISSIPPI

CITY           SKY/WX    TMP DP  RH WIND       PRES   REMARKS
MCCOMB         CLEAR     41  38  89 VRB5      30.12R
6HR MIN TEMP:  41; 6HR MAX TEMP:  44;

GULFPORT       CLOUDY    50  46  86 NE6       30.10F
6HR MIN TEMP:  50; 6HR MAX TEMP:  51;

BILOXI         CLOUDY    50  48  93 NE6       30.10F
6HR MIN TEMP:  50; 6HR MAX TEMP:  51;

PASCAGOULA     CLOUDY    51  48  89 N3        30.11S
6HR MIN TEMP:  50; 6HR MAX TEMP:  51;


$$

COASTAL OBSERVATIONS
LAKE AND NEARSHORE STATIONS

STATION/POSITION TIME  TEMP    WIND        PRES    WAVE
                       AIR SEA DIR/SP/G            HT/PER
                 (UTC) (F)     (DEG/KT/KT) (MB)    (FT/S)
PASCAGOULA       1100   51     360/  6/  8 1019.0
WAVELAND YACHT   1100   51      40/  8/  9 1018.6
GRAND ISLE       1100   54 60   60/ 12/ 15 1019.1
SOUTHWEST PASS   1100   56                 1018.5
NEW CANAL        1100   52 55   70/ 11/ 12 1019.7
SHELL BEACH      1100   52 56   40/ 12/ 14 1018.9

OFFSHORE STATIONS

STATION/POSITION TIME  TEMP    WIND        PRES    WAVE
                       AIR SEA DIR/SP/G            HT/PER
                 (UTC) (F)     (DEG/KT/KT) (MB)    (FT/S)
64 S DAUPHIN ISL 1200   64 74   40/ 16/ 19 1016.9    5/ 6

$$




USA.gov is the U.S. government's official web portal to all federal, state and local government web resources and services.